TURKSAT 5A

Last updated on Thu Nov 21 2024 00:02:44 GMT+0000 (Coordinated Universal Time)

1 47306U 21001A 24324.80111549 .00000156 00000+0 00000+0 0 9998 2 47306 0.0355 87.3388 0000250 204.3824 86.9163 1.00271626 14207
UTC large
Height (km)
Speed (km/s)
/
Latitude / Longitude
Inclination (degrees)
Orbital Period (minutes)
Azimuth
Elevation
Range (km)
Doppler Factor

Next 0 passes for location: London (51.5072 / 0.1276)

Sorry there are no passes over London.